"Pseudo-MPEC" for C0J9JJ5

Created 2023 Sep 20 20:22:03 UT using Find_Orb

Click here for an explanation of pseudo-MPECs

 
 Astrometry: 
     C0J9JJ5* C2023 09 19.24445922 24 14.861-00 44 04.49   ~9J6q       VNEOCPV00
     C0J9JJ5  C2023 09 19.24996722 24 14.980-00 45 19.33   ~9J6q 21.42GVNEOCPV00
     C0J9JJ5  C2023 09 19.25546822 24 15.062-00 46 31.58   ~9J6q 21.15GVNEOCPV00
     C0J9JJ5  C2023 09 19.26096622 24 15.185-00 47 44.95   ~9J6q 21.38GVNEOCPV00
     C0J9JJ5 KC2023 09 19.33826922 24 16.722-01 04 52.28   ~9J8b 21.42GVNEOCPV06
     C0J9JJ5 KC2023 09 19.34034222 24 16.769-01 05 20.04   ~9J8b 21.23GVNEOCPV06
     C0J9JJ5 KC2023 09 19.34241022 24 16.819-01 05 47.51   ~9J8b 21.06GVNEOCPV06
     C0J9JJ5 KC2023 09 19.34448122 24 16.859-01 06 14.98   ~9J8b 21.00GVNEOCPV06
     C0J9JJ5 1C2023 09 19.87644 22 24 47.05 -03 05 33.3    ~9JLb 21.8 VXNEOCP033
     C0J9JJ5 1C2023 09 19.87771 22 24 47.08 -03 05 50.2    ~9JLb 21.6 VXNEOCP033
     C0J9JJ5 1C2023 09 19.87897 22 24 47.12 -03 06 07.0    ~9JLb 21.4 VXNEOCP033
     C0J9JJ5 1C2023 09 19.88024 22 24 47.14 -03 06 23.9    ~9JLb 21.3 VXNEOCP033
     C0J9JJ5 KC2023 09 20C*eAstrometryF=I:B.xB)2!kn'/LMs;vE?redacted;4,Blqev6H21
     C0J9JJ5 KC2023 09 20fn9Zclick6HX2+E4hereP9o_ew^lforR]2Aj.3aM/Q9#ksmm,RQnH21
     C0J9JJ5 KC2023 09 20(jch/:Dn-vQs=u'*\T:hHqYu?'yX2m:0\fKZXWexplanationeQNH21
     C0J9JJ5 KC2023 09 20.18883722 25 04.508-04 15 56.66   ~9K4q 20.79GVNEOCPV06
     C0J9JJ5 KC2023 09 20.19026222 25 04.562-04 16 16.07   ~9K4q 21.02GVNEOCPV06
     C0J9JJ5 KC2023 09 20.19168722 25 04.602-04 16 35.87   ~9K4q 21.91GVNEOCPV06
     C0J9JJ5 KC2023 09 20.19311222 25 04.638-04 16 55.38   ~9K4q 21.31GVNEOCPV06

Station data:
(033) Karl Schwarzschild Observatory, Tautenburg  (N50.980137 E11.711240)
   Germany.  Observer B. Stecklum. 1.34-m f/3 Schmidt + CCD.
(H21) Astronomical Research Observatory, Westfield  (N39.483054 W87.968270)
   US/Illinois.  Observer R. Holmes. Measurers S. Foglia, L. Buzzi, T.
   Linder, R. Holmes. 0.76-m f/3.0 astrograph + CCD0.81-m f/4.0 astrograph +
   CCD0.61-m f/4.5 astrograph + CCD0.40-m f/5.32 astrograph + CCD.
(V00) Kitt Peak-Bok  (N31.963125 W111.600190)  US/Arizona.  Observers T. A.
   Pruyne, B. M. Africano, E. J. Christensen, G. A. Farneth, D. C. Fuls, A.
   R. Gibbs, A. D. Grauer, H. Gröller, J. A. Johnson, R. A. Kowalski, S. M.
   Larson, G. J. Leonard, D. Rankin, R. L. Seaman, F. C. Shelly, K. W.
   Wierzchoś. 2.25-m reflector + 4x4K mosaic CCD.
(V06) Catalina Sky Survey-Kuiper  (N32.416844 W110.732550)  US/Arizona.
   Observers T. A. Pruyne, B. M. Africano, E. J. Christensen, G. A. Farneth,
   D. C. Fuls, A. R. Gibbs, A. D. Grauer, H. Gröller, J. A. Johnson, R. A.
   Kowalski, S. M. Larson, G. J. Leonard, D. Rankin, R. L. Seaman, F. C.
   Shelly, K. W. Wierzchoś. 1.55-m reflector + CCD.

Orbital elements:  C0J9JJ5
   Perihelion 2023 Dec 6.09129 +/- 0.448 TT =  2:11:27 (JD 2460284.59129)
Epoch 2023 Sep 20.0 TT = JDT 2460207.5   Earth MOID: 0.0898      AutoNEOCP
M 299.56938973 +/- 0.57             (J2000 ecliptic)
n   0.78388379 +/- 0.00297          Peri.  254.55878 +/- 0.49
a   1.16493472 +/- 0.00295          Node   175.94348 +/- 0.015
e   0.1439124 +/- 0.00138           Incl.   23.30628 +/- 0.18
P   1.26/459.24d           H 25.20  G  0.15   U  8.8
q 0.99728611 +/- 0.00116    Q 1.33258333 +/- 0.00491
From 19 observations 2023 Sept. 19-20 (22.8 hr); mean residual 0".29
Residuals in arcseconds: 
230919 V00  .06-  1.2+    230919 V06  .13-  .19-    230920 H21  .07-  .10+    
230919 V00  .18+  .58-    230919 033  .02+  .35-    230920 V06  .06-  .07+    
230919 V00  .13-  .14+    230919 033  .09-  .07-    230920 V06  .21+  .11+    
230919 V00  .17+  .28-    230919 033  .06-  .18+    230920 V06  .28+  .24-    
230919 V06  .07+  .11-    230919 033  .32-  .46+    230920 V06  .28+  .30-    
230919 V06  .03+  .30-    230920 H21  .12-  .16+    
230919 V06  .03+  .26-    230920 H21  .02-  .10-    

Ephemerides (geocentric):
Date (UTC) HH   RA             Dec           delta  r     elong  mag " sig PA
---- --------  ------------   ------------  ------ ------ -----  --- --------
2023 09 20 20  22 25 38.446   -06 42 38.26  .10285 1.1005 158.2 21.5 .348  48
2023 09 20 21  22 25 40.827   -06 52 14.54  .10281 1.1004 158.2 21.5 .396  42
2023 09 20 22  22 25 43.219   -07 01 51.26  .10277 1.1003 158.1 21.5 .449  37
2023 09 20 23  22 25 45.620   -07 11 28.39  .10273 1.1002 158.0 21.5 .508  33
2023 09 21 00  22 25 48.031   -07 21 05.94  .10269 1.1001 157.9 21.5 .570  29
2023 09 21 01  22 25 50.452   -07 30 43.89  .10265 1.1000 157.9 21.5 .637  26
2023 09 21 02  22 25 52.883   -07 40 22.23  .10262 1.0999 157.8 21.5 .707  24
2023 09 21 03  22 25 55.323   -07 50 00.95  .10258 1.0998 157.7 21.5 .781  22
2023 09 21 04  22 25 57.774   -07 59 40.04  .10255 1.0997 157.6 21.5 .857  20
2023 09 21 05  22 26 00.234   -08 09 19.49  .10251 1.0996 157.6 21.5 .937  18
2023 09 21 06  22 26 02.705   -08 18 59.30  .10248 1.0995 157.5 21.5 1.02  17
2023 09 21 07  22 26 05.185   -08 28 39.44  .10245 1.0995 157.4 21.5 1.10  16
2023 09 21 08  22 26 07.675   -08 38 19.91  .10242 1.0994 157.3 21.5 1.19  14
2023 09 21 09  22 26 10.175   -08 48 00.70  .10238 1.0993 157.2 21.5 1.28  13
2023 09 21 10  22 26 12.686   -08 57 41.80  .10235 1.0992 157.1 21.5 1.38  13
2023 09 21 11  22 26 15.206   -09 07 23.19  .10233 1.0991 157.1 21.5 1.47  12
2023 09 21 12  22 26 17.737   -09 17 04.87  .10230 1.0990 157.0 21.5 1.57  11
2023 09 21 13  22 26 20.277   -09 26 46.83  .10227 1.0989 156.9 21.5 1.67  10
2023 09 21 14  22 26 22.828   -09 36 29.06  .10224 1.0988 156.8 21.5 1.78  10
2023 09 21 15  22 26 25.388   -09 46 11.54  .10222 1.0987 156.7 21.5 1.89   9
2023 09 21 16  22 26 27.959   -09 55 54.27  .10219 1.0986 156.6 21.5 1.99   9
2023 09 21 17  22 26 30.540   -10 05 37.23  .10217 1.0985 156.5 21.5 2.11   8
2023 09 21 18  22 26 33.132   -10 15 20.41  .10215 1.0984 156.4 21.5 2.22   8
2023 09 21 19  22 26 35.733   -10 25 03.80  .10213 1.0983 156.3 21.5 2.34   7
2023 09 21 20  22 26 38.345   -10 34 47.40  .10211 1.0982 156.2 21.5 2.46   7
2023 09 21 21  22 26 40.967   -10 44 31.19  .10209 1.0981 156.1 21.5 2.58   6
2023 09 21 22  22 26 43.599   -10 54 15.16  .10207 1.0981 156.0 21.5 2.70   6
2023 09 21 23  22 26 46.242   -11 03 59.30  .10205 1.0980 156.0 21.5 2.83   6
2023 09 22 00  22 26 48.895   -11 13 43.60  .10203 1.0979 155.9 21.5 2.96   5
2023 09 22 01  22 26 51.558   -11 23 28.04  .10202 1.0978 155.8 21.5 3.09   5
2023 09 22 02  22 26 54.231   -11 33 12.62  .10200 1.0977 155.7 21.5 3.23   5
2023 09 22 03  22 26 56.915   -11 42 57.33  .10198 1.0976 155.6 21.5 3.37   4
2023 09 22 04  22 26 59.610   -11 52 42.16  .10197 1.0975 155.5 21.5 3.51   4
2023 09 22 05  22 27 02.315   -12 02 27.09  .10196 1.0974 155.4 21.5 3.65   4
2023 09 22 06  22 27 05.030   -12 12 12.11  .10195 1.0973 155.2 21.5 3.79   4
2023 09 22 07  22 27 07.755   -12 21 57.22  .10194 1.0972 155.1 21.5 3.94   3
2023 09 22 08  22 27 10.492   -12 31 42.39  .10193 1.0971 155.0 21.5 4.09   3
2023 09 22 09  22 27 13.238   -12 41 27.63  .10192 1.0970 154.9 21.5 4.24   3
2023 09 22 10  22 27 15.996   -12 51 12.92  .10191 1.0969 154.8 21.5 4.40   3
2023 09 22 11  22 27 18.763   -13 00 58.25  .10190 1.0968 154.7 21.5 4.55   3
2023 09 22 12  22 27 21.542   -13 10 43.61  .10189 1.0968 154.6 21.5 4.71   2
2023 09 22 13  22 27 24.331   -13 20 28.98  .10189 1.0967 154.5 21.5 4.87   2
2023 09 22 14  22 27 27.130   -13 30 14.36  .10188 1.0966 154.4 21.5 5.04   2
2023 09 22 15  22 27 29.940   -13 39 59.74  .10188 1.0965 154.3 21.5 5.20   2
2023 09 22 16  22 27 32.761   -13 49 45.10  .10188 1.0964 154.2 21.6 5.37   2
2023 09 22 17  22 27 35.593   -13 59 30.43  .10187 1.0963 154.1 21.6 5.54   2
2023 09 22 18  22 27 38.435   -14 09 15.73  .10187 1.0962 154.0 21.6 5.72   1
2023 09 22 19  22 27 41.288   -14 19 00.98  .10187 1.0961 153.8 21.6 5.89   1